contact:dominique.lefevre@mio.osupytheas.fr, maurice.libes@osupytheas.fr, didier.mallarino@osupytheas.fr
Project:EMSO http://www.emso-fr.org/EMSO-France
Depth: 2436.0 m
Title:EMSO Ligure Ouest : Data MII capteur MICROCAT
DateTime_Computer,Latitude,Longitude,Temperature,Conductivity,Pressure,DateTime_Instrument
DateTime_Computer,Latitude,Longitude,degC,S m-1,dbar,DateTime_Instrument
2023-04-09T00:00:00Z,42.805,6.029,13.3035,4.60113,2470.717,2023-4-09T02:02:53Z
2023-04-09T00:03:03Z,42.805,6.029,13.3026,4.60107,2470.693,2023-4-09T02:05:56Z
2023-04-09T00:06:06Z,42.805,6.029,13.3030,4.60108,2470.707,2023-4-09T02:08:59Z
2023-04-09T00:09:09Z,42.805,6.029,13.3021,4.60110,2470.707,2023-4-09T02:12:02Z
2023-04-09T00:12:12Z,42.805,6.029,13.3027,4.60107,2470.693,2023-4-09T02:15:05Z
2023-04-09T00:15:15Z,42.805,6.029,13.3031,4.60099,2470.67,2023-4-09T02:18:08Z
2023-04-09T00:18:18Z,42.805,6.029,13.3034,4.60117,2470.717,2023-4-09T02:21:11Z
2023-04-09T00:21:21Z,42.805,6.029,13.3031,4.60123,2470.693,2023-4-09T02:24:14Z
2023-04-09T00:24:24Z,42.805,6.029,13.3030,4.60114,2470.67,2023-4-09T02:27:17Z
2023-04-09T00:27:27Z,42.805,6.029,13.3027,4.60098,2470.67,2023-4-09T02:30:21Z
2023-04-09T00:30:30Z,42.805,6.029,13.3030,4.60096,2470.684,2023-4-09T02:33:24Z
2023-04-09T00:33:33Z,42.805,6.029,13.3026,4.60116,2470.707,2023-4-09T02:36:27Z
2023-04-09T00:36:37Z,42.805,6.029,13.3031,4.60111,2470.67,2023-4-09T02:39:30Z
2023-04-09T00:39:40Z,42.805,6.029,13.3046,4.60108,2470.67,2023-4-09T02:42:33Z
2023-04-09T00:42:43Z,42.805,6.029,13.3028,4.60127,2470.684,2023-4-09T02:45:36Z
2023-04-09T00:45:46Z,42.805,6.029,13.3035,4.60137,2470.684,2023-4-09T02:48:39Z
2023-04-09T00:48:49Z,42.805,6.029,13.3036,4.60134,2470.646,2023-4-09T02:51:42Z
2023-04-09T00:51:52Z,42.805,6.029,13.3025,4.60125,2470.67,2023-4-09T02:54:45Z
2023-04-09T00:54:55Z,42.805,6.029,13.3031,4.60122,2470.624,2023-4-09T02:57:48Z
2023-04-09T00:57:58Z,42.805,6.029,13.3029,4.60113,2470.684,2023-4-09T03:00:51Z
2023-04-09T01:01:01Z,42.805,6.029,13.3028,4.60115,2470.661,2023-4-09T03:03:54Z
2023-04-09T01:04:04Z,42.805,6.029,13.3029,4.60125,2470.646,2023-4-09T03:06:57Z
2023-04-09T01:07:07Z,42.805,6.029,13.3029,4.60117,2470.67,2023-4-09T03:10:01Z
2023-04-09T01:10:10Z,42.805,6.029,13.3040,4.60135,2470.646,2023-4-09T03:13:04Z
2023-04-09T01:13:13Z,42.805,6.029,13.3030,4.60119,2470.684,2023-4-09T03:16:07Z
2023-04-09T01:16:17Z,42.805,6.029,13.3032,4.60121,2470.646,2023-4-09T03:19:10Z
2023-04-09T01:19:20Z,42.805,6.029,13.3031,4.60128,2470.637,2023-4-09T03:22:13Z
2023-04-09T01:22:23Z,42.805,6.029,13.3025,4.60142,2470.624,2023-4-09T03:25:16Z
2023-04-09T01:25:26Z,42.805,6.029,13.3030,4.60139,2470.661,2023-4-09T03:28:19Z
2023-04-09T01:28:29Z,42.805,6.029,13.3031,4.60141,2470.661,2023-4-09T03:31:22Z
2023-04-09T01:31:32Z,42.805,6.029,13.3030,4.60127,2470.637,2023-4-09T03:34:25Z
2023-04-09T01:34:35Z,42.805,6.029,13.3029,4.60125,2470.624,2023-4-09T03:37:28Z
2023-04-09T01:37:38Z,42.805,6.029,13.3034,4.60122,2470.646,2023-4-09T03:40:31Z
2023-04-09T01:40:41Z,42.805,6.029,13.3036,4.60140,2470.624,2023-4-09T03:43:34Z
2023-04-09T01:43:44Z,42.805,6.029,13.3039,4.60124,2470.624,2023-4-09T03:46:37Z
2023-04-09T01:46:47Z,42.805,6.029,13.3039,4.60122,2470.646,2023-4-09T03:49:41Z
2023-04-09T01:49:50Z,42.805,6.029,13.3034,4.60122,2470.646,2023-4-09T03:52:44Z
2023-04-09T01:52:53Z,42.805,6.029,13.3026,4.60122,2470.637,2023-4-09T03:55:47Z
2023-04-09T01:55:57Z,42.805,6.029,13.3037,4.60125,2470.6,2023-4-09T03:58:50Z
2023-04-09T01:59:00Z,42.805,6.029,13.3026,4.60125,2470.6,2023-4-09T04:01:53Z
2023-04-09T02:02:03Z,42.805,6.029,13.3035,4.60119,2470.661,2023-4-09T04:04:56Z
2023-04-09T02:05:06Z,42.805,6.029,13.3040,4.60137,2470.646,2023-4-09T04:07:59Z
2023-04-09T02:08:09Z,42.805,6.029,13.3036,4.60113,2470.624,2023-4-09T04:11:02Z
2023-04-09T02:11:12Z,42.805,6.029,13.3036,4.60135,2470.624,2023-4-09T04:14:05Z
2023-04-09T02:14:15Z,42.805,6.029,13.3041,4.60135,2470.6,2023-4-09T04:17:08Z
2023-04-09T02:17:18Z,42.805,6.029,13.3031,4.60137,2470.614,2023-4-09T04:20:11Z
2023-04-09T02:20:21Z,42.805,6.029,13.3029,4.60144,2470.6,2023-4-09T04:23:14Z
2023-04-09T02:23:24Z,42.805,6.029,13.3031,4.60129,2470.6,2023-4-09T04:26:17Z
2023-04-09T02:26:27Z,42.805,6.029,13.3030,4.60149,2470.6,2023-4-09T04:29:21Z
2023-04-09T02:29:30Z,42.805,6.029,13.3037,4.60136,2470.6,2023-4-09T04:32:24Z
2023-04-09T02:32:33Z,42.805,6.029,13.3029,4.60131,2470.6,2023-4-09T04:35:27Z
2023-04-09T02:35:37Z,42.805,6.029,13.3031,4.60140,2470.6,2023-4-09T04:38:30Z
2023-04-09T02:38:40Z,42.805,6.029,13.3032,4.60128,2470.624,2023-4-09T04:41:33Z
2023-04-09T02:41:43Z,42.805,6.029,13.3034,4.60151,2470.624,2023-4-09T04:44:36Z
2023-04-09T02:44:46Z,42.805,6.029,13.3043,4.60157,2470.637,2023-4-09T04:47:39Z
2023-04-09T02:47:49Z,42.805,6.029,13.3033,4.60131,2470.591,2023-4-09T04:50:42Z
2023-04-09T02:50:52Z,42.805,6.029,13.3029,4.60130,2470.577,2023-4-09T04:53:45Z
2023-04-09T02:53:55Z,42.805,6.029,13.3039,4.60134,2470.614,2023-4-09T04:56:48Z
2023-04-09T02:56:58Z,42.805,6.029,13.3033,4.60132,2470.577,2023-4-09T04:59:51Z
2023-04-09T03:00:01Z,42.805,6.029,13.3027,4.60142,2470.637,2023-4-09T05:02:54Z
2023-04-09T03:03:04Z,42.805,6.029,13.3036,4.60128,2470.6,2023-4-09T05:05:58Z
2023-04-09T03:06:07Z,42.805,6.029,13.3026,4.60144,2470.6,2023-4-09T05:09:01Z
2023-04-09T03:09:10Z,42.805,6.029,13.3036,4.60142,2470.577,2023-4-09T05:12:04Z
2023-04-09T03:12:13Z,42.805,6.029,13.3042,4.60146,2470.614,2023-4-09T05:15:07Z
2023-04-09T03:15:17Z,42.805,6.029,13.3035,4.60147,2470.624,2023-4-09T05:18:10Z
2023-04-09T03:18:20Z,42.805,6.029,13.3036,4.60139,2470.6,2023-4-09T05:21:13Z
2023-04-09T03:21:23Z,42.805,6.029,13.3041,4.60132,2470.577,2023-4-09T05:24:16Z
2023-04-09T03:24:26Z,42.805,6.029,13.3034,4.60151,2470.624,2023-4-09T05:27:19Z
2023-04-09T03:27:29Z,42.805,6.029,13.3041,4.60132,2470.6,2023-4-09T05:30:22Z
2023-04-09T03:30:32Z,42.805,6.029,13.3036,4.60157,2470.577,2023-4-09T05:33:25Z
2023-04-09T03:33:35Z,42.805,6.029,13.3036,4.60181,2470.577,2023-4-09T05:36:28Z
2023-04-09T03:36:38Z,42.805,6.029,13.3041,4.60139,2470.6,2023-4-09T05:39:31Z
2023-04-09T03:39:41Z,42.805,6.029,13.3058,4.60144,2470.577,2023-4-09T05:42:34Z
2023-04-09T03:42:44Z,42.805,6.029,13.3034,4.60138,2470.646,2023-4-09T05:45:38Z
2023-04-09T03:45:47Z,42.805,6.029,13.3048,4.60135,2470.6,2023-4-09T05:48:41Z
2023-04-09T03:48:50Z,42.805,6.029,13.3041,4.60127,2470.614,2023-4-09T05:51:44Z
2023-04-09T03:51:54Z,42.805,6.029,13.3046,4.60138,2470.637,2023-4-09T05:54:47Z
2023-04-09T03:54:57Z,42.805,6.029,13.3036,4.60135,2470.624,2023-4-09T05:57:50Z
2023-04-09T03:58:00Z,42.805,6.029,13.3036,4.60152,2470.6,2023-4-09T06:00:53Z
2023-04-09T04:01:03Z,42.805,6.029,13.3038,4.60147,2470.637,2023-4-09T06:03:56Z
2023-04-09T04:04:06Z,42.805,6.029,13.3052,4.60152,2470.637,2023-4-09T06:06:59Z
2023-04-09T04:07:09Z,42.805,6.029,13.3042,4.60162,2470.577,2023-4-09T06:10:02Z
2023-04-09T04:10:12Z,42.805,6.029,13.3036,4.60143,2470.614,2023-4-09T06:13:05Z
2023-04-09T04:13:15Z,42.805,6.029,13.3034,4.60132,2470.637,2023-4-09T06:16:08Z
2023-04-09T04:16:18Z,42.805,6.029,13.3031,4.60152,2470.624,2023-4-09T06:19:11Z
2023-04-09T04:19:21Z,42.805,6.029,13.3042,4.60167,2470.567,2023-4-09T06:22:14Z
2023-04-09T04:22:24Z,42.805,6.029,13.3039,4.60154,2470.614,2023-4-09T06:25:18Z
2023-04-09T04:25:27Z,42.805,6.029,13.3034,4.60149,2470.577,2023-4-09T06:28:21Z
2023-04-09T04:28:30Z,42.805,6.029,13.3048,4.60155,2470.577,2023-4-09T06:31:24Z
2023-04-09T04:31:33Z,42.805,6.029,13.3034,4.60160,2470.624,2023-4-09T06:34:27Z
2023-04-09T04:34:37Z,42.805,6.029,13.3039,4.60166,2470.624,2023-4-09T06:37:30Z
2023-04-09T04:37:40Z,42.805,6.029,13.3047,4.60135,2470.6,2023-4-09T06:40:33Z
2023-04-09T04:40:43Z,42.805,6.029,13.3041,4.60127,2470.624,2023-4-09T06:43:36Z
2023-04-09T04:43:46Z,42.805,6.029,13.3051,4.60140,2470.637,2023-4-09T06:46:39Z
2023-04-09T04:46:49Z,42.805,6.029,13.3038,4.60139,2470.624,2023-4-09T06:49:42Z
2023-04-09T04:49:52Z,42.805,6.029,13.3036,4.60173,2470.624,2023-4-09T06:52:45Z
2023-04-09T04:52:55Z,42.805,6.029,13.3034,4.60151,2470.6,2023-4-09T06:55:48Z
2023-04-09T04:55:58Z,42.805,6.029,13.3046,4.60152,2470.624,2023-4-09T06:58:51Z
2023-04-09T04:59:01Z,42.805,6.029,13.3034,4.60170,2470.624,2023-4-09T07:01:55Z
2023-04-09T05:02:04Z,42.805,6.029,13.3039,4.60163,2470.637,2023-4-09T07:04:58Z
2023-04-09T05:05:07Z,42.805,6.029,13.3038,4.60149,2470.637,2023-4-09T07:08:01Z
2023-04-09T05:08:10Z,42.805,6.029,13.3038,4.60144,2470.624,2023-4-09T07:11:04Z
2023-04-09T05:11:13Z,42.805,6.029,13.3035,4.60151,2470.6,2023-4-09T07:14:07Z
2023-04-09T05:14:17Z,42.805,6.029,13.3035,4.60177,2470.624,2023-4-09T07:17:10Z
2023-04-09T05:17:20Z,42.805,6.029,13.3054,4.60158,2470.614,2023-4-09T07:20:13Z
2023-04-09T05:20:23Z,42.805,6.029,13.3043,4.60148,2470.624,2023-4-09T07:23:16Z
2023-04-09T05:23:26Z,42.805,6.029,13.3037,4.60144,2470.6,2023-4-09T07:26:19Z
2023-04-09T05:26:29Z,42.805,6.029,13.3060,4.60169,2470.624,2023-4-09T07:29:22Z
2023-04-09T05:29:32Z,42.805,6.029,13.3044,4.60147,2470.624,2023-4-09T07:32:25Z
2023-04-09T05:32:35Z,42.805,6.029,13.3040,4.60167,2470.624,2023-4-09T07:35:28Z
2023-04-09T05:35:38Z,42.805,6.029,13.3036,4.60154,2470.661,2023-4-09T07:38:31Z
2023-04-09T05:38:41Z,42.805,6.029,13.3043,4.60157,2470.637,2023-4-09T07:41:35Z
2023-04-09T05:41:44Z,42.805,6.029,13.3047,4.60135,2470.661,2023-4-09T07:44:38Z
2023-04-09T05:44:47Z,42.805,6.029,13.3058,4.60133,2470.646,2023-4-09T07:47:41Z
2023-04-09T05:47:50Z,42.805,6.029,13.3039,4.60160,2470.646,2023-4-09T07:50:44Z
2023-04-09T05:50:54Z,42.805,6.029,13.3052,4.60165,2470.67,2023-4-09T07:53:47Z
2023-04-09T05:53:57Z,42.805,6.029,13.3038,4.60180,2470.707,2023-4-09T07:56:50Z
2023-04-09T05:57:00Z,42.805,6.029,13.3039,4.60162,2470.646,2023-4-09T07:59:53Z
2023-04-09T06:00:03Z,42.805,6.029,13.3041,4.60145,2470.646,2023-4-09T08:02:56Z
2023-04-09T06:03:06Z,42.805,6.029,13.3041,4.60129,2470.684,2023-4-09T08:05:59Z
2023-04-09T06:06:09Z,42.805,6.029,13.3047,4.60143,2470.67,2023-4-09T08:09:02Z
2023-04-09T06:09:12Z,42.805,6.029,13.3039,4.60156,2470.67,2023-4-09T08:12:05Z
2023-04-09T06:12:15Z,42.805,6.029,13.3048,4.60173,2470.684,2023-4-09T08:15:08Z
2023-04-09T06:15:18Z,42.805,6.029,13.3045,4.60189,2470.684,2023-4-09T08:18:12Z
2023-04-09T06:18:21Z,42.805,6.029,13.3046,4.60172,2470.707,2023-4-09T08:21:15Z
2023-04-09T06:21:24Z,42.805,6.029,13.3049,4.60143,2470.67,2023-4-09T08:24:18Z
2023-04-09T06:24:27Z,42.805,6.029,13.3057,4.60138,2470.717,2023-4-09T08:27:21Z
2023-04-09T06:27:30Z,42.805,6.029,13.3068,4.60152,2470.646,2023-4-09T08:30:24Z
2023-04-09T06:30:34Z,42.805,6.029,13.3062,4.60147,2470.693,2023-4-09T08:33:27Z
2023-04-09T06:33:37Z,42.805,6.029,13.3064,4.60137,2470.684,2023-4-09T08:36:30Z
2023-04-09T06:36:40Z,42.805,6.029,13.3070,4.60119,2470.707,2023-4-09T08:39:33Z
2023-04-09T06:39:43Z,42.805,6.029,13.3038,4.60116,2470.717,2023-4-09T08:42:36Z
2023-04-09T06:42:46Z,42.805,6.029,13.3042,4.60110,2470.67,2023-4-09T08:45:39Z
2023-04-09T06:45:49Z,42.805,6.029,13.3033,4.60084,2470.693,2023-4-09T08:48:42Z
2023-04-09T06:48:52Z,42.805,6.029,13.3034,4.60119,2470.73,2023-4-09T08:51:45Z
2023-04-09T06:51:55Z,42.805,6.029,13.3070,4.60122,2470.717,2023-4-09T08:54:48Z
2023-04-09T06:54:58Z,42.805,6.029,13.3053,4.60127,2470.74,2023-4-09T08:57:52Z
2023-04-09T06:58:01Z,42.805,6.029,13.3030,4.60087,2470.754,2023-4-09T09:00:55Z
2023-04-09T07:01:04Z,42.805,6.029,13.3030,4.60079,2470.67,2023-4-09T09:03:58Z
2023-04-09T07:04:07Z,42.805,6.029,13.3023,4.60090,2470.693,2023-4-09T09:07:01Z
2023-04-09T07:07:11Z,42.805,6.029,13.3015,4.60087,2470.74,2023-4-09T09:10:04Z
2023-04-09T07:10:14Z,42.805,6.029,13.3014,4.60087,2470.74,2023-4-09T09:13:07Z
2023-04-09T07:13:17Z,42.805,6.029,13.3015,4.60081,2470.777,2023-4-09T09:16:10Z
2023-04-09T07:16:20Z,42.805,6.029,13.3014,4.60079,2470.787,2023-4-09T09:19:13Z
2023-04-09T07:19:23Z,42.805,6.029,13.3015,4.60079,2470.717,2023-4-09T09:22:16Z
2023-04-09T07:22:26Z,42.805,6.029,13.3015,4.60081,2470.717,2023-4-09T09:25:19Z
2023-04-09T07:25:29Z,42.805,6.029,13.3014,4.60081,2470.73,2023-4-09T09:28:22Z
2023-04-09T07:28:32Z,42.805,6.029,13.3015,4.60081,2470.74,2023-4-09T09:31:25Z
2023-04-09T07:31:35Z,42.805,6.029,13.3012,4.60080,2470.717,2023-4-09T09:34:28Z
2023-04-09T07:34:38Z,42.805,6.029,13.3014,4.60086,2470.74,2023-4-09T09:37:32Z
2023-04-09T07:37:41Z,42.805,6.029,13.3019,4.60078,2470.717,2023-4-09T09:40:35Z
2023-04-09T07:40:44Z,42.805,6.029,13.3017,4.60074,2470.763,2023-4-09T09:43:38Z
2023-04-09T07:43:47Z,42.805,6.029,13.3013,4.60076,2470.754,2023-4-09T09:46:41Z
2023-04-09T07:46:50Z,42.805,6.029,13.3016,4.60077,2470.777,2023-4-09T09:49:44Z
2023-04-09T07:49:54Z,42.805,6.029,13.3014,4.60075,2470.74,2023-4-09T09:52:47Z
2023-04-09T07:52:57Z,42.805,6.029,13.3013,4.60075,2470.754,2023-4-09T09:55:50Z
2023-04-09T07:56:00Z,42.805,6.029,13.3017,4.60074,2470.75,2023-4-09T09:58:53Z
2023-04-09T07:59:03Z,42.805,6.029,13.3016,4.60076,2470.777,2023-4-09T10:01:56Z
2023-04-09T08:02:06Z,42.805,6.029,13.3017,4.60077,2470.74,2023-4-09T10:04:59Z
2023-04-09T08:05:09Z,42.805,6.029,13.3015,4.60075,2470.73,2023-4-09T10:08:02Z
2023-04-09T08:08:12Z,42.805,6.029,13.3014,4.60076,2470.763,2023-4-09T10:11:05Z
2023-04-09T08:11:15Z,42.805,6.029,13.3016,4.60075,2470.74,2023-4-09T10:14:09Z
2023-04-09T08:14:18Z,42.805,6.029,13.3015,4.60077,2470.8,2023-4-09T10:17:12Z
2023-04-09T08:17:21Z,42.805,6.029,13.3015,4.60081,2470.8,2023-4-09T10:20:15Z
2023-04-09T08:20:24Z,42.805,6.029,13.3014,4.60076,2470.74,2023-4-09T10:23:18Z
2023-04-09T08:23:27Z,42.805,6.029,13.3014,4.60075,2470.787,2023-4-09T10:26:21Z
2023-04-09T08:26:31Z,42.805,6.029,13.3016,4.60074,2470.717,2023-4-09T10:29:24Z
2023-04-09T08:29:34Z,42.805,6.029,13.3017,4.60086,2470.763,2023-4-09T10:32:27Z
2023-04-09T08:32:38Z,42.805,6.029,13.3015,4.60074,2470.763,2023-4-09T10:35:32Z
2023-04-09T08:35:41Z,42.805,6.029,13.3015,4.60075,2470.74,2023-4-09T10:38:35Z
2023-04-09T08:38:44Z,42.805,6.029,13.3019,4.60074,2470.754,2023-4-09T10:41:38Z
2023-04-09T08:41:48Z,42.805,6.029,13.3021,4.60074,2470.777,2023-4-09T10:44:41Z
2023-04-09T08:44:51Z,42.805,6.029,13.3017,4.60079,2470.763,2023-4-09T10:47:44Z
2023-04-09T08:47:54Z,42.805,6.029,13.3016,4.60077,2470.74,2023-4-09T10:50:47Z
2023-04-09T08:50:57Z,42.805,6.029,13.3017,4.60075,2470.777,2023-4-09T10:53:50Z
2023-04-09T08:54:00Z,42.805,6.029,13.3014,4.60074,2470.787,2023-4-09T10:56:53Z
2023-04-09T08:57:03Z,42.805,6.029,13.3018,4.60075,2470.787,2023-4-09T10:59:56Z
2023-04-09T09:00:06Z,42.805,6.029,13.3021,4.60077,2470.754,2023-4-09T11:02:59Z
2023-04-09T09:03:09Z,42.805,6.029,13.3017,4.60074,2470.74,2023-4-09T11:06:03Z
2023-04-09T09:06:12Z,42.805,6.029,13.3015,4.60074,2470.787,2023-4-09T11:09:06Z
2023-04-09T09:09:15Z,42.805,6.029,13.3015,4.60074,2470.777,2023-4-09T11:12:09Z
2023-04-09T09:12:18Z,42.805,6.029,13.3016,4.60078,2470.763,2023-4-09T11:15:12Z
2023-04-09T09:15:21Z,42.805,6.029,13.3015,4.60078,2470.74,2023-4-09T11:18:15Z
2023-04-09T09:18:24Z,42.805,6.029,13.3021,4.60076,2470.763,2023-4-09T11:21:18Z
2023-04-09T09:21:28Z,42.805,6.029,13.3017,4.60079,2470.763,2023-4-09T11:24:21Z
2023-04-09T09:24:31Z,42.805,6.029,13.3017,4.60074,2470.777,2023-4-09T11:27:24Z
2023-04-09T09:27:34Z,42.805,6.029,13.3019,4.60076,2470.763,2023-4-09T11:30:27Z
2023-04-09T09:30:37Z,42.805,6.029,13.3018,4.60082,2470.763,2023-4-09T11:33:30Z
2023-04-09T09:33:40Z,42.805,6.029,13.3011,4.60074,2470.777,2023-4-09T11:36:33Z
2023-04-09T09:36:43Z,42.805,6.029,13.3019,4.60074,2470.787,2023-4-09T11:39:36Z
2023-04-09T09:39:46Z,42.805,6.029,13.3019,4.60077,2470.763,2023-4-09T11:42:39Z
2023-04-09T09:42:49Z,42.805,6.029,13.3018,4.60080,2470.74,2023-4-09T11:45:43Z
2023-04-09T09:45:52Z,42.805,6.029,13.3015,4.60079,2470.777,2023-4-09T11:48:46Z
2023-04-09T09:48:55Z,42.805,6.029,13.3015,4.60076,2470.74,2023-4-09T11:51:49Z
2023-04-09T09:51:58Z,42.805,6.029,13.3015,4.60076,2470.777,2023-4-09T11:54:52Z
2023-04-09T09:55:01Z,42.805,6.029,13.3018,4.60077,2470.717,2023-4-09T11:57:55Z
2023-04-09T09:58:05Z,42.805,6.029,13.3014,4.60074,2470.754,2023-4-09T12:00:58Z
2023-04-09T10:01:08Z,42.805,6.029,13.3011,4.60074,2470.763,2023-4-09T12:04:01Z
2023-04-09T10:04:11Z,42.805,6.029,13.3020,4.60076,2470.777,2023-4-09T12:07:04Z
2023-04-09T10:07:14Z,42.805,6.029,13.3014,4.60081,2470.74,2023-4-09T12:10:07Z
2023-04-09T10:10:17Z,42.805,6.029,13.3015,4.60080,2470.74,2023-4-09T12:13:10Z
2023-04-09T10:13:20Z,42.805,6.029,13.3016,4.60074,2470.754,2023-4-09T12:16:13Z
2023-04-09T10:16:23Z,42.805,6.029,13.3011,4.60087,2470.73,2023-4-09T12:19:16Z
2023-04-09T10:19:26Z,42.805,6.029,13.3018,4.60083,2470.73,2023-4-09T12:22:20Z
2023-04-09T10:22:29Z,42.805,6.029,13.3019,4.60074,2470.74,2023-4-09T12:25:23Z
2023-04-09T10:25:32Z,42.805,6.029,13.3017,4.60073,2470.74,2023-4-09T12:28:26Z
2023-04-09T10:28:35Z,42.805,6.029,13.3015,4.60074,2470.717,2023-4-09T12:31:29Z
2023-04-09T10:31:37Z,42.805,6.029,13.3015,4.60072,2470.73,2023-4-09T12:34:30Z
2023-04-09T10:34:40Z,42.805,6.029,13.3015,4.60072,2470.717,2023-4-09T12:37:33Z
2023-04-09T10:37:43Z,42.805,6.029,13.3012,4.60072,2470.717,2023-4-09T12:40:37Z
2023-04-09T10:40:46Z,42.805,6.029,13.3019,4.60072,2470.717,2023-4-09T12:43:40Z
2023-04-09T10:43:49Z,42.805,6.029,13.3015,4.60074,2470.717,2023-4-09T12:46:43Z
2023-04-09T10:46:52Z,42.805,6.029,13.3021,4.60072,2470.707,2023-4-09T12:49:46Z
2023-04-09T10:49:55Z,42.805,6.029,13.3014,4.60073,2470.717,2023-4-09T12:52:49Z
2023-04-09T10:52:58Z,42.805,6.029,13.3015,4.60073,2470.754,2023-4-09T12:55:52Z
2023-04-09T10:56:02Z,42.805,6.029,13.3016,4.60074,2470.707,2023-4-09T12:58:55Z
2023-04-09T10:59:05Z,42.805,6.029,13.3016,4.60072,2470.707,2023-4-09T13:01:58Z
2023-04-09T11:02:08Z,42.805,6.029,13.3017,4.60072,2470.693,2023-4-09T13:05:01Z
2023-04-09T11:05:11Z,42.805,6.029,13.3015,4.60073,2470.707,2023-4-09T13:08:04Z
2023-04-09T11:08:14Z,42.805,6.029,13.3016,4.60072,2470.693,2023-4-09T13:11:07Z
2023-04-09T11:11:17Z,42.805,6.029,13.3014,4.60074,2470.707,2023-4-09T13:14:10Z
2023-04-09T11:14:20Z,42.805,6.029,13.3016,4.60078,2470.684,2023-4-09T13:17:14Z
2023-04-09T11:17:23Z,42.805,6.029,13.3019,4.60072,2470.67,2023-4-09T13:20:17Z
2023-04-09T11:20:26Z,42.805,6.029,13.3016,4.60072,2470.67,2023-4-09T13:23:20Z
2023-04-09T11:23:29Z,42.805,6.029,13.3013,4.60071,2470.67,2023-4-09T13:26:23Z
2023-04-09T11:26:32Z,42.805,6.029,13.3019,4.60071,2470.693,2023-4-09T13:29:26Z
2023-04-09T11:29:35Z,42.805,6.029,13.3014,4.60092,2470.67,2023-4-09T13:32:29Z
2023-04-09T11:32:39Z,42.805,6.029,13.3019,4.60073,2470.684,2023-4-09T13:35:32Z
2023-04-09T11:35:42Z,42.805,6.029,13.3017,4.60072,2470.67,2023-4-09T13:38:35Z
2023-04-09T11:38:45Z,42.805,6.029,13.3016,4.60073,2470.684,2023-4-09T13:41:38Z
2023-04-09T11:41:48Z,42.805,6.029,13.3016,4.60074,2470.707,2023-4-09T13:44:41Z
2023-04-09T11:44:51Z,42.805,6.029,13.3012,4.60075,2470.684,2023-4-09T13:47:44Z
2023-04-09T11:47:54Z,42.805,6.029,13.3014,4.60072,2470.646,2023-4-09T13:50:47Z
2023-04-09T11:50:57Z,42.805,6.029,13.3017,4.60077,2470.661,2023-4-09T13:53:50Z
2023-04-09T11:54:00Z,42.805,6.029,13.3019,4.60078,2470.67,2023-4-09T13:56:54Z
2023-04-09T11:57:03Z,42.805,6.029,13.3016,4.60074,2470.67,2023-4-09T13:59:57Z
2023-04-09T12:00:06Z,42.805,6.029,13.3019,4.60077,2470.693,2023-4-09T14:03:00Z
2023-04-09T12:03:09Z,42.805,6.029,13.3022,4.60077,2470.646,2023-4-09T14:06:03Z
2023-04-09T12:06:12Z,42.805,6.029,13.3021,4.60081,2470.67,2023-4-09T14:09:06Z
2023-04-09T12:09:15Z,42.805,6.029,13.3023,4.60078,2470.67,2023-4-09T14:12:09Z
2023-04-09T12:12:19Z,42.805,6.029,13.3030,4.60085,2470.646,2023-4-09T14:15:12Z
2023-04-09T12:15:22Z,42.805,6.029,13.3040,4.60093,2470.646,2023-4-09T14:18:15Z
2023-04-09T12:18:25Z,42.805,6.029,13.3044,4.60102,2470.624,2023-4-09T14:21:18Z
2023-04-09T12:21:28Z,42.805,6.029,13.3034,4.60086,2470.637,2023-4-09T14:24:21Z
2023-04-09T12:24:31Z,42.805,6.029,13.3043,4.60105,2470.624,2023-4-09T14:27:24Z
2023-04-09T12:27:34Z,42.805,6.029,13.3043,4.60113,2470.646,2023-4-09T14:30:27Z
2023-04-09T12:30:37Z,42.805,6.029,13.3036,4.60092,2470.6,2023-4-09T14:33:30Z
2023-04-09T12:33:40Z,42.805,6.029,13.3035,4.60087,2470.646,2023-4-09T14:36:34Z
2023-04-09T12:36:43Z,42.805,6.029,13.3044,4.60099,2470.661,2023-4-09T14:39:37Z
2023-04-09T12:39:46Z,42.805,6.029,13.3034,4.60114,2470.624,2023-4-09T14:42:40Z
2023-04-09T12:42:49Z,42.805,6.029,13.3035,4.60125,2470.646,2023-4-09T14:45:43Z
2023-04-09T12:45:52Z,42.805,6.029,13.3039,4.60109,2470.637,2023-4-09T14:48:46Z
2023-04-09T12:48:55Z,42.805,6.029,13.3032,4.60134,2470.624,2023-4-09T14:51:49Z
2023-04-09T12:51:59Z,42.805,6.029,13.3036,4.60122,2470.6,2023-4-09T14:54:52Z
2023-04-09T12:55:02Z,42.805,6.029,13.3031,4.60116,2470.624,2023-4-09T14:57:55Z
2023-04-09T12:58:05Z,42.805,6.029,13.3037,4.60129,2470.614,2023-4-09T15:00:58Z
2023-04-09T13:01:08Z,42.805,6.029,13.3033,4.60122,2470.6,2023-4-09T15:04:01Z
2023-04-09T13:04:11Z,42.805,6.029,13.3031,4.60117,2470.6,2023-4-09T15:07:04Z
2023-04-09T13:07:14Z,42.805,6.029,13.3034,4.60145,2470.6,2023-4-09T15:10:07Z
2023-04-09T13:10:17Z,42.805,6.029,13.3032,4.60109,2470.577,2023-4-09T15:13:11Z
2023-04-09T13:13:20Z,42.805,6.029,13.3030,4.60108,2470.591,2023-4-09T15:16:14Z
2023-04-09T13:16:23Z,42.805,6.029,13.3034,4.60110,2470.624,2023-4-09T15:19:17Z
2023-04-09T13:19:26Z,42.805,6.029,13.3041,4.60122,2470.591,2023-4-09T15:22:20Z
2023-04-09T13:22:29Z,42.805,6.029,13.3036,4.60127,2470.6,2023-4-09T15:25:23Z
2023-04-09T13:25:32Z,42.805,6.029,13.3036,4.60118,2470.614,2023-4-09T15:28:26Z
2023-04-09T13:28:36Z,42.805,6.029,13.3034,4.60135,2470.6,2023-4-09T15:31:29Z
2023-04-09T13:31:39Z,42.805,6.029,13.3033,4.60120,2470.6,2023-4-09T15:34:32Z
2023-04-09T13:34:42Z,42.805,6.029,13.3051,4.60127,2470.591,2023-4-09T15:37:35Z
2023-04-09T13:37:45Z,42.805,6.029,13.3032,4.60109,2470.614,2023-4-09T15:40:38Z
2023-04-09T13:40:48Z,42.805,6.029,13.3034,4.60129,2470.6,2023-4-09T15:43:41Z
2023-04-09T13:43:51Z,42.805,6.029,13.3030,4.60122,2470.591,2023-4-09T15:46:44Z
2023-04-09T13:46:54Z,42.805,6.029,13.3041,4.60126,2470.577,2023-4-09T15:49:48Z
2023-04-09T13:49:57Z,42.805,6.029,13.3038,4.60132,2470.53,2023-4-09T15:52:51Z
2023-04-09T13:53:00Z,42.805,6.029,13.3037,4.60132,2470.577,2023-4-09T15:55:54Z
2023-04-09T13:56:03Z,42.805,6.029,13.3037,4.60141,2470.577,2023-4-09T15:58:57Z
2023-04-09T13:59:06Z,42.805,6.029,13.3033,4.60132,2470.577,2023-4-09T16:02:00Z
2023-04-09T14:02:09Z,42.805,6.029,13.3036,4.60117,2470.577,2023-4-09T16:05:03Z
2023-04-09T14:05:12Z,42.805,6.029,13.3036,4.60127,2470.6,2023-4-09T16:08:06Z
2023-04-09T14:08:15Z,42.805,6.029,13.3041,4.60123,2470.563,2023-4-09T16:11:09Z
2023-04-09T14:11:19Z,42.805,6.029,13.3031,4.60116,2470.577,2023-4-09T16:14:12Z
2023-04-09T14:14:22Z,42.805,6.029,13.3036,4.60134,2470.614,2023-4-09T16:17:15Z
2023-04-09T14:17:25Z,42.805,6.029,13.3030,4.60129,2470.577,2023-4-09T16:20:18Z
2023-04-09T14:20:28Z,42.805,6.029,13.3035,4.60116,2470.614,2023-4-09T16:23:21Z
2023-04-09T14:23:31Z,42.805,6.029,13.3036,4.60122,2470.591,2023-4-09T16:26:24Z
2023-04-09T14:26:34Z,42.805,6.029,13.3037,4.60114,2470.567,2023-4-09T16:29:28Z
2023-04-09T14:29:37Z,42.805,6.029,13.3042,4.60133,2470.577,2023-4-09T16:32:31Z
2023-04-09T14:32:40Z,42.805,6.029,13.3033,4.60117,2470.614,2023-4-09T16:35:33Z
2023-04-09T14:35:43Z,42.805,6.029,13.3033,4.60128,2470.6,2023-4-09T16:38:36Z
2023-04-09T14:38:46Z,42.805,6.029,13.3036,4.60120,2470.577,2023-4-09T16:41:39Z
2023-04-09T14:41:49Z,42.805,6.029,13.3035,4.60137,2470.577,2023-4-09T16:44:42Z
2023-04-09T14:44:52Z,42.805,6.029,13.3042,4.60122,2470.53,2023-4-09T16:47:45Z
2023-04-09T14:47:55Z,42.805,6.029,13.3035,4.60133,2470.577,2023-4-09T16:50:49Z
2023-04-09T14:50:58Z,42.805,6.029,13.3040,4.60130,2470.553,2023-4-09T16:53:52Z
2023-04-09T14:54:01Z,42.805,6.029,13.3036,4.60124,2470.553,2023-4-09T16:56:55Z
2023-04-09T14:57:04Z,42.805,6.029,13.3034,4.60127,2470.614,2023-4-09T16:59:58Z
2023-04-09T15:00:07Z,42.805,6.029,13.3041,4.60112,2470.577,2023-4-09T17:03:01Z
2023-04-09T15:03:10Z,42.805,6.029,13.3030,4.60102,2470.577,2023-4-09T17:06:04Z
2023-04-09T15:06:13Z,42.805,6.029,13.3033,4.60107,2470.567,2023-4-09T17:09:07Z
2023-04-09T15:09:17Z,42.805,6.029,13.3044,4.60118,2470.577,2023-4-09T17:12:10Z
2023-04-09T15:12:20Z,42.805,6.029,13.3036,4.60122,2470.567,2023-4-09T17:15:13Z